SL-14 DEB, 47083

Orbit data source: Space-Track

SL-14 DEB, 47083 is space debris in LEO originally from a launch on Thu, 15 Aug 1991 UTC launched from the Plesetsk Missile And Space Complex (PKMTR). Debris objects in space refer to the collection of defunct objects orbiting the Earth. Examples of debris include non-operational satellites, rocket bodies, and fragments generated from explosions, collisions, or faulty payload assembly.

Loading next visibility...
SL-14 DEB details
Identifier
47083, 1991-056DH
Orbit
LEO
Last TLE update22 hours ago
Origin
Flag of CISRosgidromet (CIS)
ManufacturerUnknown
MissionSpacecraft
Bus & MotorUnknown
MassUnknown
Launch date (UTC)
1991-08-15 (33 years ago)
Launch vehicleUnknown
Launch site
Plesetsk Missile And Space Complex (PKMTR)
Object type
Payload
Rocket body
Debris
Shape & HBRUnknown
Radar Cross SectionSmall (<0.1 m²)

Expand to show TLE details & history

TLE from 22 hours ago
0 SL-14 DEB
1 47083U 91056DH  24360.49232397  .00065298  00000-0  17653-1 0  9990
2 47083  82.6297  17.7609 0158339 136.5224 224.8581 14.40228575209740
Epoch: 2024-12-25T11:48Z
Definitive object data (Epoch: 2024-12-25T11:48:56.791Z)
Latitude-0.00009°
Longitude106.03897°
Altitude841.712 km
Speed7.39 km/s
True Right ascension01h 11m 02s
True Declination0° 00' 00"
Sunlit
Object was in daylight at TLE epoch
Visualization TLE readout
Latitude46.71785°
Longitude-82.61279°
Altitude651.697 km
Speed7.596 km/s
Apparent Right ascension17h 05m 37s
Apparent Declination14° 41' 44"
Sunlit
Object is in daylight
Visualization observer readout
Local Sidereal Time09:27:08
Azimuth62.736° ENE
Elevation-8.413°
Doppler factor1
Orbital elements
Apogee altitude867.756 km
Perigee altitude641.872 km
Semi-major axis7,132.951 km
Eccentricity0.0158339
Inclination82.6297°
RAAN17.7609°
Arg. of periapsis136.5224°
True anomaly223.5961°
Mean anomaly224.8581°
Eccentric anomaly224.22533°
Mean motion3.60279 °/min
BSTAR0.017653
Orbital period99.92 mins
Loading maneuver chart data...
Loading historical data...
Loading historical data...
Loading historical data...
Loading historical data...
Loading historical data...
Loading historical data...
Loading historical data...

SL-14 DEB Visibility forecast

Observer location: undefined°, undefined

Span
Click to sort rows by Start time (UTC) header in descending order
Start Az.
Max El. time (UTC)
Max El. Az.
Max El.
End time (UTC)
End Az.
8 mins2024-12-26 13:24:00.449Z348.622° N2024-12-26 13:28:00.449Z254.747° W44.074°2024-12-26 13:32:00.449Z180.043° SSW
9 mins2024-12-27 02:17:00.449Z198.62° SSW2024-12-27 02:21:00.449Z264.064° W42.074°2024-12-27 02:26:00.449Z0.932° NNE
|